Regional Weather Roundup
Issued by NWS

Home | Current Version | Previous Version | Text Only | Print | Product List | Glossary Off
Versions: 1 2 3 4 5 6 7 8 9 10 11 12 13 14 15 16 17 18 19 20 21 22 23 24 25 26 27 28 29 30 31 32 33 34 35 36 37 38 39 40 41 42 43 44 45 46 47 48 49 50

213
ASUS44 KMEG 291210
RWRTN
TENNESSEE HOURLY STATE WEATHER ROUNDUP
NATIONAL WEATHER SERVICE MEMPHIS TN
700 AM CDT SAT APR 29 2017

TNZ002-004-019-021-049-052-054-088>092-291300-
WEST TENNESSEE

CITY           SKY/WX    TMP DP  RH WIND       PRES   REMARKS
MEMPHIS INTL   CLOUDY    75  69  81 S10       29.87R
NWS MEMPHIS      N/A     74 N/A N/A MISG        N/A
JACKSON        CLOUDY    75  69  81 S9        29.90S
DYERSBURG      CLOUDY    75  69  81 VRB7      29.87R
SOMERVILLE     MOCLDY    73  68  83 S8        29.88S HAZE
UNION CITY     CLOUDY    75  68  78 S12G20    29.87R
BOLIVAR        MOCLDY    73  68  83 SE7       29.90R
HUNTINGDON     CLOUDY    73  70  88 S7        29.91R
LEXINGTON      PTSUNNY   73  68  83 S6        29.94R
SAVANNAH       CLOUDY    73  68  83 S12G20    29.93S
$$

TNZ008-025-027-028-033-062-065-066-291300-
NORTH MIDDLE TENNESSEE

CITY           SKY/WX    TMP DP  RH WIND       PRES   REMARKS
NASHVILLE      PTSUNNY   73  68  84 S9        29.99R
PORTLAND       CLOUDY    73  68  83 S8G14     29.99R
CLARKSVILLE    CLOUDY    73  67  81 SE7       29.95R
SMYRNA         PTSUNNY   73  68  84 S8        30.01R
COOKEVILLE     SUNNY     72  66  83 S9        30.03S
GALLATIN       MOSUNNY   75  68  78 S7G15     30.03R
CROSSVILLE     SUNNY     69  64  84 S6        30.11R
$$

TNZ061-075-076-078-094-096-097-291300-
SOUTH MIDDLE TENNESSEE

CITY           SKY/WX    TMP DP  RH WIND       PRES   REMARKS
FAYETTEVILLE   SUNNY     70  66  88 S8        30.03R
TULLAHOMA      SUNNY     70  64  83 SE9       30.05R
WINCHESTER     SUNNY     72  66  83 SE8       30.06R
MCMINNVILLE    SUNNY     73  66  78 VRB6      30.03F
COLUMBIA       SUNNY    N/A N/A N/A S9        29.97S
SHELBYVILLE    SUNNY     72  68  88 SE7       30.03R
$$

TNZ017-018-042-046-047-291300-
NORTHEAST TENNESSEE

CITY           SKY/WX    TMP DP  RH WIND       PRES   REMARKS
TRI CITIES     CLOUDY    62  60  93 CALM      30.16R
ELIZABETHTON   CLOUDY    64  59  82 NE5       30.16R
$$

TNZ012-013-036-069-073-074-291300-
CENTRAL EAST TENNESSEE

CITY           SKY/WX    TMP DP  RH WIND       PRES   REMARKS
KNOXVILLE      CLOUDY    66  62  87 CALM      30.10R
OAK RIDGE      CLOUDY    70  64  81 CALM      30.11R
DOWNTOWN KNOXV SUNNY     61  61 100 CALM      30.11R FOG
GATLINBURG     SUNNY     61  61 100 CALM      30.11R
MORRISTOWN     SUNNY     64  63  94 NE3       30.12R
JACKSBORO      MOSUNNY   70  66  88 NE6       30.13R
$$

TNZ083-085-099-291300-
SOUTHEAST TENNESSEE

CITY           SKY/WX    TMP DP  RH WIND       PRES   REMARKS
CHATTANOOGA    MOSUNNY   68  65  90 CALM      30.10R
$$

SKY/WX REPORTED AS FAIR MEANS FEW OR NO CLOUDS BELOW
12 THOUSAND FEET.





USA.gov is the U.S. government's official web portal to all federal, state and local government web resources and services.